Regional Weather Roundup
Issued by NWS

Home | Current Version | Previous Version | Text Only | Print | Product List | Glossary Off
Versions: 1 2 3 4 5 6 7 8 9 10 11 12 13 14 15 16 17 18 19 20 21 22 23 24 25 26 27 28 29 30 31 32 33 34 35 36 37 38 39 40 41 42 43 44 45 46 47 48 49 50

000
ASUS43 KFSD 250710
RWRSD

WEATHER ROUNDUP FOR SOUTH DAKOTA
NATIONAL WEATHER SERVICE SIOUX FALLS SD
200 AM CDT SUN SEP 25 2016

NOTE: "FAIR" INDICATES FEW OR NO CLOUDS BELOW 12,000 FEET WITH NO
SIGNIFICANT WEATHER AND/OR OBSTRUCTIONS TO VISIBILITY.


SDZ001>005-009-010-012>017-250800-
NORTHWEST AND NORTH CENTRAL SOUTH DAKOTA

CITY           SKY/WX    TMP DP  RH WIND       PRES   REMARKS
BUFFALO          N/A     51  46  83 NW40G48   29.96R
FAITH            N/A     52  45  77 NW38G49   29.93R
MOBRIDGE       CLOUDY    58  52  80 W25G36    29.74F
$$

SDZ012>016-024>037-041>051-057-063-072>074-250800-
SOUTHWEST AND SOUTH CENTRAL SOUTH DAKOTA

CITY           SKY/WX    TMP DP  RH WIND       PRES   REMARKS
RAPID CTY ARPT CLOUDY    53  40  61 NW36G49   30.09R
PIERRE         CLOUDY    57  47  69 W21G35    29.91S
CUSTER         CLOUDY    44  35  70 W16G26    30.17R
ELLSWORTH AFB  CLOUDY    53  41  62 NW30G46   30.07R
PHILIP         CLOUDY    56  45  66 NW25G40   30.03R
PINE RIDGE     CLOUDY    51  43  74 W18G31    30.15R
WINNER         FAIR      56  42  59 W15       30.02R
$$

SDZ004>011-016>023-039-040-250800-
NORTHEAST SOUTH DAKOTA

CITY           SKY/WX    TMP DP  RH WIND       PRES   REMARKS
ABERDEEN       CLEAR     52  44  74 S10       29.84F
WATERTOWN      PTCLDY    55  49  80 W9        29.90R
BROOKINGS      CLOUDY    57  48  72 NW14      29.93R
SISSETON         N/A     59  50  72 W8        29.83R
$$

SDZ017-020-022-023-036>040-048>070-250800-
SOUTHEAST SOUTH DAKOTA

CITY           SKY/WX    TMP DP  RH WIND       PRES   REMARKS
SIOUX FALLS    CLOUDY    61  50  67 W10       29.94R
HURON          PTCLDY    53  42  66 SW6       29.92R
CHAMBERLAIN    CLEAR     56  45  65 W20G26    29.98S
MITCHELL       CLEAR     55  43  63 W5        29.96R
YANKTON        CLEAR     57  48  72 W9        29.97R
$$

ABBREVIATIONS USED IN REMARKS
   TC - TEMPERATURE IN CELSIUS
  WCI - WIND CHILL INDEX
   HX - HEAT INDEX
  VSB - VISIBILITY




USA.gov is the U.S. government's official web portal to all federal, state and local government web resources and services.